Date String (YYYY-MM-DD hh:mm:ss) UTC,Instrument flags,Ambient pressure (hPa),Sample flow (lpm),Bypass flow (lpm),Sample temperature (°C),Ambient temperature (°C),ASC tube jacket temperature (°C),LED temperature (°C),Box temperature (°C),Sample RH (%),Span deviation,Mass concentration (μg/m³),Mass concentration (μg/m³),Mass concentration (μg/m³)
DateTimeUTC,F1_M11,P_M11,Q1_M11,Q2_M11,T1_M11,T2_M11,T3_M11,T4_M11,T5_M11,U1_M11,ZSPAN_M11,X2_M11,X0_M11,X1_M11
2022-10-03 17:00:00,,0830.6,5.00,0.00,30.6,29.4,00.0,39.3,32.5,22.0,0000.0,0003.90,0006.31,0003.56
2022-10-03 17:01:00,,0830.6,5.00,0.00,30.6,28.3,00.0,39.3,32.4,22.1,0000.0,0003.87,0006.19,0003.55
2022-10-03 17:02:00,,0830.5,5.01,0.00,30.6,27.2,00.0,39.2,32.2,22.1,0000.0,0003.87,0006.22,0003.55
2022-10-03 17:03:00,,0830.5,5.01,0.00,30.5,27.0,00.0,39.2,32.1,21.8,0000.0,0003.88,0006.17,0003.56
2022-10-03 17:04:00,,0830.5,5.00,0.00,30.4,27.3,00.0,39.1,32.0,21.5,0000.0,0003.88,0006.03,0003.57
2022-10-03 17:05:00,,0830.5,4.99,0.00,30.3,27.6,00.0,39.1,32.0,22.2,0000.0,0003.88,0006.00,0003.57
2022-10-03 17:06:00,,0830.5,4.99,0.00,30.3,27.9,00.0,39.1,32.0,22.3,0000.0,0003.89,0005.96,0003.59
2022-10-03 17:07:00,,0830.5,4.99,0.00,30.3,28.2,00.0,39.1,32.0,22.5,0000.0,0003.89,0005.85,0003.61
2022-10-03 17:08:00,,0830.5,5.00,0.00,30.3,28.4,00.0,39.0,32.0,22.4,0000.0,0003.88,0005.72,0003.61
2022-10-03 17:09:00,,0830.5,5.01,0.00,30.3,28.6,00.0,39.0,32.0,22.6,0000.0,0003.88,0005.87,0003.62
2022-10-03 17:10:00,,0830.5,4.98,0.00,30.3,28.7,00.0,39.0,32.0,22.3,0000.0,0003.90,0005.96,0003.64
2022-10-03 17:11:00,,0830.4,5.01,0.00,30.3,28.8,00.0,39.0,32.0,22.1,0000.0,0003.93,0006.38,0003.66
2022-10-03 17:12:00,,0830.4,4.99,0.00,30.3,28.9,00.0,39.0,32.0,22.0,0000.0,0003.94,0006.73,0003.64
2022-10-03 17:13:00,,0830.4,5.01,0.00,30.3,29.0,00.0,39.0,32.1,22.4,0000.0,0003.92,0006.73,0003.63
2022-10-03 17:14:00,,0830.4,4.99,0.00,30.3,29.1,00.0,39.0,32.1,22.3,0000.0,0003.92,0006.85,0003.62
2022-10-03 17:15:00,,0830.4,5.01,0.00,30.3,29.1,00.0,39.0,32.1,21.4,0000.0,0003.92,0006.93,0003.60
2022-10-03 17:16:00,,0830.5,4.99,0.00,30.4,29.2,00.0,39.0,32.1,20.7,0000.0,0003.89,0007.18,0003.56
2022-10-03 17:17:00,,0830.5,5.01,0.00,30.4,29.2,00.0,39.0,32.2,20.9,0000.0,0003.87,0007.50,0003.50
2022-10-03 17:18:00,,0830.5,4.99,0.00,30.4,29.3,00.0,39.1,32.2,21.1,0000.0,0003.87,0007.88,0003.47
2022-10-03 17:19:00,,0830.5,5.01,0.00,30.4,29.3,00.0,39.1,32.2,21.2,0000.0,0003.86,0007.92,0003.44
2022-10-03 17:20:00,,0830.5,5.00,0.00,30.4,29.3,00.0,39.1,32.3,21.3,0000.0,0003.82,0007.79,0003.40
2022-10-03 17:21:00,,0830.5,5.01,0.00,30.5,29.4,00.0,39.1,32.3,21.0,0000.0,0003.80,0007.76,0003.36
2022-10-03 17:22:00,,0830.5,5.00,0.00,30.5,29.2,00.0,39.1,32.3,21.7,0000.0,0003.80,0007.93,0003.33
2022-10-03 17:23:00,,0830.5,5.01,0.00,30.5,28.1,00.0,39.1,32.2,21.8,0000.0,0003.77,0007.83,0003.32
2022-10-03 17:24:00,,0830.5,5.01,0.00,30.4,26.9,00.0,39.1,32.1,22.1,0000.0,0003.75,0007.85,0003.32
2022-10-03 17:25:00,,0830.5,5.00,0.00,30.4,26.9,00.0,39.0,32.0,22.1,0000.0,0003.75,0007.88,0003.31
2022-10-03 17:26:00,,0830.4,5.00,0.00,30.3,27.2,00.0,39.0,31.9,22.1,0000.0,0003.77,0007.91,0003.31
2022-10-03 17:27:00,,0830.4,4.99,0.00,30.2,27.5,00.0,38.9,31.8,22.4,0000.0,0003.80,0008.53,0003.33
2022-10-03 17:28:00,,0830.4,4.99,0.00,30.2,27.9,00.0,38.9,31.8,22.7,0000.0,0003.79,0008.76,0003.35
2022-10-03 17:29:00,,0830.4,5.00,0.00,30.1,28.1,00.0,38.9,31.8,22.1,0000.0,0003.78,0008.38,0003.35
2022-10-03 17:30:00,,0830.4,5.00,0.00,30.1,28.3,00.0,38.9,31.9,22.1,0000.0,0003.77,0008.36,0003.36
2022-10-03 17:31:00,,0830.3,5.01,0.00,30.1,28.5,00.0,38.9,31.9,22.2,0000.0,0003.81,0008.44,0003.38
2022-10-03 17:32:00,,0830.3,4.99,0.00,30.1,28.6,00.0,38.9,31.9,22.1,0000.0,0003.82,0008.43,0003.39
2022-10-03 17:33:00,,0830.2,5.01,0.00,30.1,28.8,00.0,38.9,32.0,21.9,0000.0,0003.80,0008.15,0003.38
2022-10-03 17:34:00,,0830.2,4.99,0.00,30.2,28.9,00.0,38.9,32.0,21.9,0000.0,0003.81,0008.09,0003.36
2022-10-03 17:35:00,,0830.2,4.99,0.00,30.2,29.0,00.0,38.9,32.0,21.9,0000.0,0003.82,0008.25,0003.35
2022-10-03 17:36:00,,0830.3,5.01,0.00,30.2,29.0,00.0,38.9,32.0,22.0,0000.0,0003.79,0008.50,0003.34
2022-10-03 17:37:00,,0830.3,4.98,0.00,30.2,28.8,00.0,38.9,32.0,21.9,0000.0,0003.75,0009.00,0003.32
2022-10-03 17:38:00,,0830.3,5.00,0.00,30.2,27.5,00.0,38.9,31.9,22.0,0000.0,0003.72,0008.64,0003.30
2022-10-03 17:39:00,,0830.2,5.00,0.00,30.1,26.5,00.0,38.8,31.7,22.1,0000.0,0003.72,0008.04,0003.30
2022-10-03 17:40:00,,0830.2,5.01,0.00,30.0,26.6,00.0,38.8,31.7,22.2,0000.0,0003.74,0008.07,0003.29
2022-10-03 17:41:00,,0830.2,5.02,0.00,29.9,26.8,00.0,38.7,31.5,22.4,0000.0,0003.73,0008.05,0003.28
2022-10-03 17:42:00,,0830.1,5.00,0.00,29.9,27.2,00.0,38.7,31.5,22.6,0000.0,0003.71,0008.13,0003.26
2022-10-03 17:43:00,,0830.1,4.98,0.00,29.9,27.5,00.0,38.7,31.5,22.9,0000.0,0003.70,0008.20,0003.24
2022-10-03 17:44:00,,0830.1,5.01,0.00,29.8,27.8,00.0,38.6,31.5,22.2,0000.0,0003.67,0008.14,0003.23
2022-10-03 17:45:00,,0830.1,5.01,0.00,29.8,28.1,00.0,38.6,31.6,21.8,0000.0,0003.66,0008.14,0003.22
2022-10-03 17:46:00,,0830.1,5.00,0.00,29.9,28.2,00.0,38.6,31.6,22.2,0000.0,0003.65,0008.03,0003.20
2022-10-03 17:47:00,,0830.1,4.99,0.00,29.9,28.4,00.0,38.6,31.7,21.7,0000.0,0003.63,0007.69,0003.18
2022-10-03 17:48:00,,0830.1,5.00,0.00,29.9,28.5,00.0,38.6,31.7,21.5,0000.0,0003.62,0007.77,0003.15
2022-10-03 17:49:00,,0830.1,4.99,0.00,29.9,28.6,00.0,38.6,31.7,21.3,0000.0,0003.60,0007.80,0003.12
2022-10-03 17:50:00,,0830.1,5.01,0.00,29.9,28.7,00.0,38.6,31.8,21.3,0000.0,0003.56,0007.73,0003.08
2022-10-03 17:51:00,,0830.1,5.00,0.00,30.0,28.8,00.0,38.6,31.8,21.2,0000.0,0003.53,0008.08,0003.05
2022-10-03 17:52:00,,0830.1,5.00,0.00,30.0,28.9,00.0,38.6,31.9,21.0,0000.0,0003.51,0008.38,0003.01
2022-10-03 17:53:00,,0830.1,5.01,0.00,30.0,28.9,00.0,38.6,31.9,21.0,0000.0,0003.49,0009.35,0002.98
2022-10-03 17:54:00,,0830.1,4.99,0.00,30.0,29.0,00.0,38.7,31.9,21.0,0000.0,0003.46,0009.29,0002.95
2022-10-03 17:55:00,,0830.1,5.02,0.00,30.1,29.1,00.0,38.7,32.0,20.9,0000.0,0003.45,0009.32,0002.92
2022-10-03 17:56:00,,0830.1,4.99,0.00,30.1,28.5,00.0,38.7,32.0,20.3,0000.0,0003.38,0009.12,0002.87
2022-10-03 17:57:00,,0830.0,5.00,0.00,30.1,27.0,00.0,38.7,31.8,20.4,0000.0,0003.32,0008.97,0002.83
2022-10-03 17:58:00,,0830.1,5.00,0.00,30.0,26.5,00.0,38.6,31.7,20.8,0000.0,0003.27,0008.72,0002.78
2022-10-03 17:59:00,,0830.1,4.99,0.00,29.9,26.7,00.0,38.6,31.6,21.1,0000.0,0003.21,0007.98,0002.76
